West Palm Beach, FL (33406)

9:09 PM EDT on August 22, 2014 (GMT -0400)
SFWMD FHCHSX | Change Station
CLOSE
Current Station
Personal Weather Station
Location: West Palm Beach, FL
Elevation: 16 ft
Nearby Weather Stations

Elev 16 ft 26.65 °N, 80.07 °W | Updated 54 minutes ago

Partly Cloudy
Partly Cloudy
85 °F
Feels Like 93 °F
N
5
Wind Variable Wind from ESE
Gusts 10.0 mph

Today
High -- | Low -- °F
--% Chance of Precip.
Yesterday
High -- | Low -- °F
Precip. -- in
6:55 AM 7:50 PM
Waning Crescent, 6% visible
Pressure 30.01 in
Visibility 10.0 miles
Clouds Few 3500 ft
Few 25000 ft
Heat Index 93 °F
Dew Point 74 °F
Humidity 71%
Rainfall -999.00 in
Snow Depth Not available.
UV 0 out of 12
Pollen 4.70 out of 12
Air Quality Not available.
Flu Activity Not available.
METAR KPBI 230053Z 11007KT 10SM FEW035 FEW250 30/24 A3001 RMK AO2 SLP162 T03000239

More Conditions Fewer Conditions

Pressure 30.01 in
Visibility 10.0 miles
Clouds Few 3500 ft
Few 25000 ft
Heat Index 93 °F
Dew Point 74 °F
Humidity 71%
Rainfall -999.00 in
Snow Depth Not available.
UV 0 out of 12
Pollen 4.70 out of 12
Air Quality Not available.
Flu Activity Not available.
METAR KPBI 230053Z 11007KT 10SM FEW035 FEW250 30/24 A3001 RMK AO2 SLP162 T03000239

More Conditions Fewer Conditions

10-Day Weather Forecast

Almanac

Astronomy

Aug. 22, 2014 Rise Set
Actual Time 6:55 AM EDT 7:50 PM EDT
Civil Twilight 6:31 AM EDT 8:14 PM EDT
Nautical Twilight 6:03 AM EDT 8:42 PM EDT
Astronomical Twilight 5:34 AM EDT 9:11 PM EDT
Moon 4:23 AM EDT (8/22) 5:52 PM EDT (8/22)
Length of Visible Light 13h 42m
Length of Day
12h 54m
Tomorrow will be 1m 27s shorter.
Waning Crescent, 6% of the Moon is Illuminated
Today
Waning Crescent
Aug 25
New
Sep 2
First Quarter
Sep 8
Full
Sep 15
Last Quarter

Today's Extremes

State Highs State Lows

Community

WunderPhotos

Upload Photos

1,746,336 photos uploaded!

WunderBlogs® & News

Nearby

Air Quality

  Air Quality AQ Index Pollutant
Yesterday Good
OZONE
Friday Good
OZONE
Friday Good
PM2.5
Saturday Good
OZONE
Saturday Good
PM2.5
Sunday Good
OZONE
Sunday Good
PM2.5
Monday Good
OZONE
Monday Good
PM2.5

Snow Depth

Station Depth Elevation
No new snow has been reported.

Earthquake Activity

City Distance Mag. Time & Date
No recent earthquake activity has been reported nearby.
Minimum magnitude displayed is 2.5.

Coastal Water Temperatures

Place Temperature
Lake Worth, FL 87.1 °F
Virginia Key, FL 90.0 °F

Nearby Weather Stations